Flag for Italy Weather past 2 weeks in Naples, Italy

Now
50 °F

Clear.


Feels Like: 48 °F
Forecast: 47 / 61 °F
Wind: 6 mph from Northwest

Location: Naples / Capodichino

Current Time: Dec 19, 2014 at 1:53:17 AM

Latest Report: Dec 19, 2014 at 12:50 AM


Visibility: 10 mi

Pressure: 30.21 "Hg

Humidity: 82%

Dew point: 45 °F

Location of NaplesLocation

Historic Weather in Naples — Graph

°F

Naples temperature yesterday

Maximum temperature yesterday: 64 °F (at 12:50 PM)
Minimum temperature yesterday: 45 °F (at 12:20 AM)
Average temperature yesterday: 54 °F

Past Weeks' High & Low Weather Summary

 TemperatureHumidityPressure
High64 °F (Dec 14, 11:50 AM)100% (Dec 4, 12:50 AM)30.27 "Hg (Dec 4, 12:50 AM)
Low41 °F (Dec 11, 4:20 AM)29% (Dec 12, 1:20 PM)29.77 "Hg (Dec 9, 3:50 AM)
Average54 °F77%30.00 "Hg
* Reported Dec 4 12:20 AM — Dec 19 12:20 AM, Naples, Weather by CustomWeather, © 2014

Note: Actual official high and low records may vary slightly from our data, if they occured in-between our weather recording intervals... More about our weather records

Advertising

Naples weather history for previous 24 hours

 ConditionsComfort  
Time TempWeatherWind HumidityBarometerVisibility
12:20 AM
Dec 19
46 °FClear.5 mph87%30.21 "Hg10 mi
11:50 PM
Dec 18
46 °FClear.5 mph87%30.18 "Hg10 mi
11:20 PM48 °FClear.3 mph87%30.18 "Hg10 mi
10:50 PM50 °FClear.2 mph82%30.18 "Hg10 mi
10:20 PM50 °FClear.2 mph82%30.18 "Hg10 mi
9:20 PM52 °FPassing clouds.3 mph77%30.18 "HgN/A
8:50 PM52 °FClear.2 mph77%30.18 "Hg10 mi
8:20 PM54 °FClear.1 mph77%30.15 "Hg10 mi
7:50 PM54 °FPassing clouds.3 mph72%30.15 "HgN/A
7:20 PM55 °FPassing clouds.5 mph72%30.15 "HgN/A
6:50 PM55 °FClear.5 mph72%30.12 "Hg10 mi
6:20 PM55 °FClear.3 mph67%30.12 "Hg10 mi
5:50 PM59 °FClear.2 mph59%30.09 "Hg10 mi
5:20 PM59 °FClear.2 mph59%30.09 "Hg10 mi
4:50 PM59 °FClear.6 mph59%30.09 "Hg10 mi
4:20 PM63 °FPassing clouds.6 mph52%30.09 "HgN/A
3:50 PM63 °FSunny.5 mph56%30.07 "Hg10 mi
3:20 PM63 °FSunny.10 mph52%30.07 "Hg10 mi
2:50 PM63 °FPassing clouds.10 mph52%30.07 "HgN/A
2:20 PM64 °FSunny.9 mph49%30.04 "Hg10 mi
1:50 PM64 °FPassing clouds.10 mph52%30.04 "HgN/A
1:20 PM64 °FPassing clouds.9 mph52%30.07 "HgN/A
12:50 PM64 °FPassing clouds.7 mph56%30.07 "HgN/A
12:20 PM63 °FPassing clouds.5 mph56%30.07 "HgN/A
11:50 AM63 °FPassing clouds.6 mph56%30.07 "HgN/A
11:20 AM63 °FPassing clouds.6 mph56%30.07 "HgN/A
10:50 AM59 °FSunny.6 mph63%30.07 "Hg10 mi
10:20 AM57 °FPassing clouds.3 mph72%30.07 "HgN/A
9:50 AM55 °FSunny.5 mph77%30.04 "Hg10 mi
9:20 AM55 °FSunny.3 mph77%30.04 "Hg10 mi
8:50 AM52 °FSunny.No wind88%30.01 "Hg10 mi
8:20 AM48 °FPassing clouds.5 mph94%30.01 "HgN/A
7:50 AM46 °FSunny.2 mph93%30.01 "Hg10 mi
7:20 AM48 °FPassing clouds.5 mph94%30.01 "HgN/A
6:50 AM48 °FClear.5 mph94%29.98 "Hg10 mi
6:20 AM46 °FPassing clouds.2 mph93%29.98 "HgN/A
5:50 AM46 °FPassing clouds.3 mph93%29.98 "HgN/A
5:20 AM48 °FPassing clouds.5 mph87%29.95 "HgN/A
4:20 AM46 °FPassing clouds.2 mph100%29.95 "HgN/A
3:50 AM46 °FPassing clouds.3 mph93%29.95 "HgN/A
3:20 AM48 °FPassing clouds.1 mph94%29.95 "HgN/A
2:50 AM48 °FPassing clouds.2 mph87%29.95 "HgN/A
2:20 AM48 °FPassing clouds.2 mph94%29.95 "HgN/A
1:50 AM48 °FPassing clouds.5 mph94%29.95 "HgN/A
1:20 AM48 °FPassing clouds.2 mph94%29.95 "Hg5 mi
Weather by CustomWeather, © 2014

See weather overviewHow to use our weather pages